www.pogodaiklimat.ru

Погода и климат >> Архив погоды >> Украина >> Застава


ПОГОДА в Заставе

  • Прогноз погоды в Заставе
  • Монитор погоды в Заставе

АРХИВ ПОГОДЫ в Заставе

Время (UTC), дата Ветер
(напр.,м/с)
 
Видим.   Явления Облачность Т
(С)
Тd
(С)
f
(%)
Тe
(С)
Тes
(С)
Комфортность P
(гПа)
Po
(гПа)
Тmin
(С)
Tmax
(С)
R
(мм)
R24
(мм)
S
(см)
00 9.09 СВ 4 10 км ясно +21.9 +16.1 70 +26 +26 душно 1022.0 1004.4
03 9.09 В 4 10 км 3/0
[Ci fib]
+20.6 +17.4 82 +24 +24 комфорт 1021.9 1004.2
06 9.09 10 км 8/0
[Ci fib]
+20.4 +15.3 73 1021.6 1003.9 +19.5
09 9.09 В 6 10 км 6/0
[Ci fib]
+23.5 +17.6 69 +27 +31 душно 1021.3 1003.8
12 9.09 ЮВ 6 10 км 1/0
[Ci fib]
+24.8 +15.6 57 +28 +31 жарко 1019.8 1002.4
15 9.09 Ю 5 10 км ясно +24.7 +16.8 61 +28 +29 душно 1018.8 1001.4
18 9.09 Ю 7 10 км ясно +23.1 +17.1 69 +28 +28 душно 1019.1 1001.6 +24.8
21 9.09 н/о 950.2
00 10.09 В 9 10 км ясно +22.0 +13.5 59 +25 +25 комфорт 1018.5 1001.0
03 10.09 В 5 10 км 1/1 600 м
[St Ac cast Ci fib]
+19.5 +14.7 74 +21 +21 комфорт 1019.0 1001.3
06 10.09 В 4 10 км 8/0
[Ci fib]
+19.6 +12.5 64 +21 +23 комфорт 1020.4 1002.7 +19.4
12 10.09 В 6 10 км 8/0
[Ci sp]
+24.8 +14.6 53 +27 +30 жарко 1019.6 1002.2
15 10.09 В 6 10 км 6/0
[Ci fib]
+24.5 +16.9 63 +28 +29 душно 1019.4 1002.0
18 10.09 Ю 5 10 км 3/0
[Ci fib]
+22.3 +18.7 80 +28 +28 душно 1020.6 1003.0 +24.8
21 10.09 В 7 10 км ясно +22.1 +14.5 62 +25 +25 комфорт 1021.4 1003.8
00 11.09 СВ 3 10 км ясно +19.7 +14.2 71 +22 +22 комфорт 1021.9 1004.2
03 11.09 С 4 10 км ясно +18.7 +11.7 64 +19 +19 1022.7 1004.9
06 11.09 В 5 10 км 1/0
[Ci fib]
+19.9 +12.8 64 +22 +23 комфорт 1024.2 1006.4 +18.7
09 11.09 В 6 10 км 3/0
[Ci fib]
+23.1 +15.9 64 +28 +31 душно 1024.6 1007.0
12 11.09 В 4 10 км 1/0
[Ci fib]
+25.2 +16.3 58 +29 +34 душно 1024.0 1006.6
15 11.09 ЮВ 4 10 км 3/0
[Ci fib]
+24.3 +20.0 77 +30 +30 очень
душно
1023.5 1006.0
18 11.09 штиль 0 10 км ясно +21.8 +19.6 87 +27 +27 душно 1024.2 1006.6 +25.3
21 11.09 С 2 10 км ясно +20.5 +17.7 84 +25 +25 комфорт 1024.6 1006.9
00 12.09 СЗ 2 10 км ясно +19.3 +11.8 62 +21 +21 комфорт 1024.7 1006.9
03 12.09 С 4 10 км ясно +18.7 +13.0 69 +19 +19 1025.0 1007.2
06 12.09 С 3 10 км 3/0
[Ci fib]
+19.7 +12.2 62 +21 +24 комфорт 1025.9 1008.1 +18.7
09 12.09 В 2 10 км 3/0
[Ci fib]
+23.7 +15.9 62 +27 +37 жарко 1025.8 1008.2
12 12.09 В 2 10 км 5/0
[Ci fib]
+24.5 +15.1 56 +27 +35 жарко 1025.1 1007.6
15 12.09 Ю 3 10 км 4/0
[Ci fib]
+25.7 +14.3 49 +28 +29 жарко 1024.0 1006.6
18 12.09 штиль 0 10 км ясно +22.7 +16.3 67 +27 +27 душно 1025.0 1007.4 +26.0
21 12.09 штиль 0 10 км ясно +21.3 +17.6 79 +25 +25 комфорт 1024.7 1007.0
00 13.09 СЗ 1 10 км ясно +19.1 +14.3 74 +21 +21 комфорт 1024.5 1006.7
03 13.09 СЗ 2 10 км ясно +17.5 +12.1 71 +18 +18 1024.7 1006.8
06 13.09 СЗ 3 10 км 8/0
[Ci fib]
+18.2 +11.2 64 +19 +21 1025.4 1007.5 +17.5
12 13.09 Ю 5 10 км 6/0
[Ci fib]
+26.5 +12.2 41 +28 +32 жарко 1023.8 1006.4
18 13.09 Ю 1 10 км ясно +24.3 +13.1 50 +26 +26 жарко 1022.5 1005.0 +26.5
00 14.09 З 3 10 км ясно +21.3 +11.7 54 +23 +23 комфорт 1022.0 1004.4
06 14.09 СЗ 3 10 км 1/0
[Ac trans]
+19.3 +12.7 66 +21 +23 комфорт 1022.2 1004.4 +19.3
12 14.09 С 8 10 км 10/4 600 м
[Cu med, cong Ac trans Ci fib]
+24.6 +16.9 62 +28 +29 душно 1021.3 1003.9
18 14.09 С 11 10 км 9/3 600 м
[Cu med, cong Ac trans]
+21.3 +11.0 52 +23 +23 комфорт 1013.2 995.7 +24.9
00 15.09 С 9 10 км ясно +16.3 +9.2 63 +15 +15 1025.3 1007.3
06 15.09 С 4 10 км 3/0
[Ci fib]
+14.2 +7.7 65 +13 +15 1026.7 1008.5 +14.2

 

Местоположение метеостанции Застава (Одесская область, Украина): широта 46.80 долгота 30.00 высота над уровнем моря 150 м.

В архиве по умолчанию представлена погода в Заставе за последнюю неделю. Архивные данные за месяц целиком и за предыдущие месяцы, начиная с января 2011 года, Вы можете получить, выбрав интересующий диапазон дат из раскрывающегося списка и нажав кнопку "Ввод!".


*Определитесь, кто Вы:
робот инопланетянин человек

Внимание! Время в таблицах - всемирное. Для получения местного времени необходимо прибавить поправку, которая равна 2 ч.

Смотрите также архив погоды в соседних городах и на ближайших метеорологических станциях:

Погода в Раздельной (Одесская область, Украина) (8 км)
Погода в Тирасполе (Молдова) (32 км)
Погода в Штефан Водэ (Молдова) (50 км)
Погода в Затишье (Одесская область, Украина) (60 км)
Погода в Сербке (Одесская область, Украина) (62 км)
Погода в Ильичевске (Одесская область, Украина) (70 км)
Погода в Одессе (Одесская область, Украина) (72 км)
Погода в Белгород-Днестровском (Одесская область, Украина) (75 км)
Погода в Балцате (Молдова) (79 км)
Погода в Кишиневе (Молдова) (81 км)

Пояснения к столбцам:

Ветер - указаны скорость ветра в м/с - средняя за 10 мин, порывы в срок и между сроками (в фигурных скобках) и направление, откуда дует ветер: С - северный, СВ - северо-восточный, В - восточный, ЮВ - юго-восточный, Ю - южный, ЮЗ - юго-западный, З - западный, СЗ - северо-западный.
Видимость - горизонтальная дальность видимости в метрах или километрах. При видимости от 1 до 10 км при отсутствии осадков обычно наблюдается дымка, при ухудшении видимости до 1 км и менее - туман. В сухую погоду видимость может ухудшаться дымом, пылью или мглою.
Явления - указаны атмосферные явления, наблюдавшиеся в срок или в последний час перед сроком; фигурными скобками обозначены явления, наблюдавшиеся между сроками (за 1-3 часа до срока); квадратными скобками обозначены град или гололедные отложения с указанием их диаметра в мм.
Облачность - указаны через наклонную черту общая и нижняя облачность в баллах и высота нижней границы облаков в метрах; квадратными скобками обозначены формы облаков: Ci - перистые, Cs - перисто-слоистые, Cc - перисто-кучевые, Ac - высококучевые, As - высокослоистые, Sc - слоисто-кучевые, Ns - слоисто-дождевые, Cu - кучевые, Cb - кучево-дождевые. Подробнее классификацию облаков см. в Атласе облаков (PDF).
T - Температура воздуха - температура, измеренная на высоте 2 м над землей.
Td - Температура точки росы - температура, при понижении до которой содержащийся в воздухе водяной пар достигнет насыщения.
f - Относительная влажность воздуха - влажноcть воздуха, измеренная на высоте 2 м над землей.
Te - Эффективная температура - температура, которую ощущает одетый по сезону человек в тени. Характеристика душности погоды. При расчете учитывается влияние влажности воздуха и скорости ветра на теплоощущения человека.
Tes - Эффективная температура на солнце - температура, которую ощущает человек, с поправкой на солнечный нагрев. Характеристика знойности погоды. Зависит от высоты солнца над горизонтом, облачности и скорости ветра. Ночью, в пасмурную погоду, а также при ветре 12 м/с и более поправка равна нулю.
P - Атмосферное давление - приведенное к уровню моря атмосферное давление.
Po - Атмосферное давление - измеренное на уровне метеостанции атмосферное давление.
Tmin - Минимальная температура - минимум температуры воздуха на высоте 2 м над землей.
Tmax - Максимальная температура - максимум температуры воздуха на высоте 2 м над землей.
R - Количество осадков - Количество выпавших осадков за период времени, мм. При наведении курсора мыши на число - период времени, за который выпало указанное количество осадков.
R24 - Количество осадков - Количество выпавших осадков за 24 часа, мм.
S - Снежный покров - Высота снежного покрова, см. При наведении курсора мыши на число - состояние снежного покрова и степень покрытия местности в баллах.